• In Hungary
  • List of Countries
  • For 7 days
  • Water Temperature
  • Satellite Maps
  • Weather Map
  • News
  • Weather Widgets
  • user-avatar
    Login

    Hourly Weather Strzyzowiec

    Today, 16 November, Friday

    Time Temperature Precipitation Wind Pressure Humidity
    00:00 +1°C° 0 mm 4 mps 757 mmHg 80%
    01:00 +1°C° 0 mm 4 mps 757 mmHg 81%
    02:00 +2°C° 0 mm 3 mps 758 mmHg 83%
    03:00 +2°C° 0 mm 3 mps 758 mmHg 83%
    04:00 +2°C° 0 mm 3 mps 759 mmHg 84%
    05:00 +2°C° 0 mm 3 mps 759 mmHg 85%
    06:00 +2°C° 0 mm 3 mps 759 mmHg 84%
    07:00 +2°C° 0 mm 3 mps 759 mmHg 83%
    08:00 +2°C° 0 mm 3 mps 760 mmHg 83%
    09:00 +1°C° 0 mm 4 mps 760 mmHg 81%
    10:00 +3°C° 0 mm 4 mps 760 mmHg 79%
    11:00 +3°C° 0 mm 4 mps 760 mmHg 77%
    12:00 +3°C° 0 mm 4 mps 760 mmHg 75%
    13:00 +4°C° 0 mm 4 mps 760 mmHg 73%
    14:00 +4°C° 0 mm 4 mps 760 mmHg 71%
    15:00 +3°C° 0 mm 4 mps 761 mmHg 73%
    16:00 +3°C° 0 mm 3 mps 761 mmHg 75%
    17:00 +2°C° 0 mm 3 mps 761 mmHg 76%
    18:00 +1°C° 0 mm 3 mps 761 mmHg 75%
    19:00 0°C° 0 mm 4 mps 761 mmHg 74%
    20:00 -1°C° 0 mm 4 mps 761 mmHg 73%
    21:00 -1°C° 0 mm 4 mps 761 mmHg 73%
    22:00 -1°C° 0 mm 3 mps 761 mmHg 72%
    23:00 -1°C° 0 mm 3 mps 761 mmHg 71%

    Tomorrow, 17 November, Saturday

    Time Temperature Precipitation Wind Pressure Humidity
    00:00 -2°C° 0 mm 3 mps 761 mmHg 70%
    01:00 -2°C° 0 mm 3 mps 761 mmHg 70%
    02:00 -2°C° 0 mm 3 mps 762 mmHg 70%
    03:00 -4°C° 0 mm 3 mps 761 mmHg 69%
    04:00 -4°C° 0 mm 3 mps 761 mmHg 69%
    05:00 -4°C° 0 mm 3 mps 761 mmHg 68%
    06:00 -4°C° 0 mm 3 mps 761 mmHg 67%
    07:00 -4°C° 0 mm 3 mps 761 mmHg 67%
    08:00 -4°C° 0 mm 3 mps 761 mmHg 66%
    09:00 -2°C° 0 mm 3 mps 761 mmHg 61%
    10:00 -1°C° 0 mm 3 mps 761 mmHg 55%
    11:00 0°C° 0 mm 3 mps 761 mmHg 49%
    12:00 +1°C° 0 mm 3 mps 761 mmHg 48%
    13:00 +1°C° 0 mm 3 mps 761 mmHg 47%
    14:00 +2°C° 0 mm 3 mps 760 mmHg 46%
    15:00 +1°C° 0 mm 3 mps 760 mmHg 50%
    16:00 +1°C° 0 mm 2 mps 760 mmHg 55%
    17:00 -1°C° 0 mm 2 mps 759 mmHg 59%
    18:00 -1°C° 0 mm 2 mps 759 mmHg 59%
    19:00 -1°C° 0 mm 2 mps 759 mmHg 60%
    20:00 -2°C° 0 mm 2 mps 759 mmHg 60%
    21:00 -2°C° 0 mm 2 mps 759 mmHg 60%
    22:00 0°C° 0 mm 1 mps 759 mmHg 59%
    23:00 0°C° 0 mm 1 mps 758 mmHg 59%

    Day after tomorrow, 18 November, Sunday

    Time Temperature Precipitation Wind Pressure Humidity
    00:00 0°C° 0 mm 1 mps 758 mmHg 58%
    01:00 0°C° 0 mm 1 mps 757 mmHg 58%
    02:00 -1°C° 0 mm 0 mps 757 mmHg 57%
    03:00 0°C° 0 mm 1 mps 756 mmHg 57%
    04:00 0°C° 0 mm 1 mps 756 mmHg 56%
    05:00 0°C° 0 mm 1 mps 755 mmHg 56%
    06:00 -1°C° 0 mm 1 mps 755 mmHg 57%
    07:00 -1°C° 0 mm 1 mps 754 mmHg 57%
    08:00 -3°C° 0 mm 2 mps 754 mmHg 57%
    09:00 -2°C° 0 mm 2 mps 753 mmHg 53%
    10:00 +1°C° 0 mm 2 mps 753 mmHg 48%
    11:00 +1°C° 0 mm 3 mps 752 mmHg 44%
    12:00 +1°C° 0 mm 3 mps 752 mmHg 44%
    13:00 +1°C° 0 mm 3 mps 751 mmHg 45%
    14:00 +2°C° 0 mm 3 mps 751 mmHg 45%
    15:00 +1°C° 0 mm 3 mps 750 mmHg 53%
    16:00 +1°C° 0 mm 2 mps 750 mmHg 60%
    17:00 +1°C° 0 mm 2 mps 749 mmHg 68%
    18:00 -1°C° 0 mm 2 mps 749 mmHg 74%
    19:00 -1°C° 0 mm 2 mps 748 mmHg 81%
    20:00 +1°C° 0 mm 1 mps 748 mmHg 87%
    21:00 +1°C° 0 mm 1 mps 748 mmHg 89%
    22:00 +1°C° 0 mm 1 mps 748 mmHg 91%
    23:00 +2°C° 0 mm 1 mps 748 mmHg 93%

    19 November, Monday

    Time Temperature Precipitation Wind Pressure Humidity
    00:00 +2°C° 0.1 mm 1 mps 747 mmHg 94%
    01:00 +1°C° 0.1 mm 1 mps 747 mmHg 95%
    02:00 +1°C° 0.1 mm 1 mps 747 mmHg 96%
    03:00 +1°C° 0.1 mm 1 mps 746 mmHg 96%
    04:00 +1°C° 0.1 mm 1 mps 746 mmHg 96%
    05:00 +1°C° 0.1 mm 0 mps 746 mmHg 96%
    06:00 +2°C° 0.1 mm 1 mps 746 mmHg 96%
    07:00 +1°C° 0.1 mm 1 mps 746 mmHg 96%
    08:00 +1°C° 0.1 mm 1 mps 745 mmHg 96%
    09:00 +2°C° 0 mm 1 mps 746 mmHg 92%
    10:00 +2°C° 0 mm 2 mps 746 mmHg 88%
    11:00 +2°C° 0 mm 2 mps 746 mmHg 84%
    12:00 +2°C° 0 mm 2 mps 746 mmHg 81%
    13:00 +2°C° 0 mm 3 mps 746 mmHg 78%
    14:00 +2°C° 0 mm 3 mps 746 mmHg 76%
    15:00 +1°C° 0.1 mm 3 mps 746 mmHg 79%
    16:00 +1°C° 0.1 mm 3 mps 746 mmHg 82%
    17:00 0°C° 0.1 mm 3 mps 746 mmHg 85%
    18:00 0°C° 0.2 mm 3 mps 746 mmHg 86%
    19:00 -1°C° 0.2 mm 4 mps 746 mmHg 86%
    20:00 -1°C° 0.2 mm 4 mps 746 mmHg 87%
    21:00 -1°C° 0.1 mm 4 mps 746 mmHg 86%
    22:00 -1°C° 0.1 mm 4 mps 746 mmHg 86%
    23:00 -2°C° 0.1 mm 5 mps 746 mmHg 85%

    20 November, Tuesday

    Time Temperature Precipitation Wind Pressure Humidity
    00:00 -2°C° 0.1 mm 5 mps 746 mmHg 86%
    01:00 -2°C° 0.1 mm 5 mps 746 mmHg 86%
    02:00 -2°C° 0.1 mm 5 mps 746 mmHg 86%
    03:00 -2°C° 0.1 mm 5 mps 746 mmHg 87%
    04:00 -2°C° 0.1 mm 5 mps 745 mmHg 87%
    05:00 -4°C° 0.1 mm 5 mps 745 mmHg 87%
    06:00 -4°C° 0.2 mm 5 mps 745 mmHg 88%
    07:00 -4°C° 0.2 mm 5 mps 745 mmHg 89%
    08:00 -4°C° 0.2 mm 5 mps 745 mmHg 90%
    09:00 -2°C° 0.3 mm 5 mps 745 mmHg 90%
    10:00 -2°C° 0.3 mm 5 mps 745 mmHg 90%
    11:00 -2°C° 0.3 mm 5 mps 745 mmHg 90%
    12:00 -1°C° 0 mm 4 mps 745 mmHg 90%
    13:00 -1°C° 0 mm 4 mps 745 mmHg 89%
    14:00 0°C° 0 mm 4 mps 744 mmHg 89%
    15:00 0°C° 0 mm 4 mps 744 mmHg 90%
    16:00 0°C° 0 mm 4 mps 744 mmHg 91%
    17:00 0°C° 0 mm 4 mps 744 mmHg 92%
    18:00 0°C° 0 mm 5 mps 743 mmHg 93%
    19:00 0°C° 0 mm 5 mps 743 mmHg 93%
    20:00 -1°C° 0 mm 6 mps 743 mmHg 94%
    21:00 -1°C° 0.3 mm 6 mps 742 mmHg 93%
    22:00 -1°C° 0.3 mm 6 mps 742 mmHg 92%
    23:00 -1°C° 0.3 mm 7 mps 741 mmHg 92%

    21 November, Wednesday

    Time Temperature Precipitation Wind Pressure Humidity
    00:00 -1°C° 1.2 mm 7 mps 741 mmHg 92%
    01:00 -1°C° 1.2 mm 8 mps 740 mmHg 92%
    02:00 -2°C° 1.2 mm 8 mps 739 mmHg 92%
    03:00 -1°C° 0.8 mm 8 mps 739 mmHg 92%
    04:00 -1°C° 0.8 mm 8 mps 738 mmHg 93%
    05:00 -1°C° 0.8 mm 8 mps 738 mmHg 93%
    06:00 -1°C° 0.2 mm 8 mps 737 mmHg 94%
    07:00 -1°C° 0.2 mm 8 mps 737 mmHg 94%
    08:00 -1°C° 0.2 mm 8 mps 736 mmHg 94%
    09:00 -1°C° 0.2 mm 7 mps 736 mmHg 94%
    10:00 -1°C° 0.2 mm 7 mps 736 mmHg 94%
    11:00 -1°C° 0.2 mm 7 mps 736 mmHg 94%
    12:00 -1°C° 0.2 mm 7 mps 735 mmHg 94%
    13:00 -1°C° 0.2 mm 7 mps 735 mmHg 94%
    14:00 0°C° 0.2 mm 7 mps 734 mmHg 94%
    15:00 0°C° 0.3 mm 7 mps 734 mmHg 94%
    16:00 +1°C° 0.3 mm 6 mps 734 mmHg 95%
    17:00 +1°C° 0.3 mm 6 mps 734 mmHg 95%
    18:00 +1°C° 1 mm 5 mps 734 mmHg 96%
    19:00 +1°C° 1 mm 5 mps 734 mmHg 96%
    20:00 +1°C° 1 mm 4 mps 734 mmHg 97%
    21:00 +1°C° 0.3 mm 4 mps 734 mmHg 97%
    22:00 +2°C° 0.3 mm 3 mps 735 mmHg 96%
    23:00 +2°C° 0.3 mm 3 mps 735 mmHg 96%
    Show more